Home   Weather   Abilene   Past weeks

Flag for USA Past Weather in Abilene, Texas, USA — Yesterday and Last 2 Weeks

47 °F


Feels Like: 47 °F
Forecast: 46 / 71 °F
Wind: No wind

Location: Abilene Regional Airport

Current Time: Oct 21, 2016 at 4:14:47 AM

Latest Report: Oct 21, 2016 at 2:52 AM

Visibility: 3 mi

Pressure: 30.31 "Hg (28.44 "Hg at 524m altitude)

Humidity: 83%

Dew Point: 42 °F

Location of AbileneLocation

Past Weather in Abilene — Graph


Abilene Temperature Yesterday

Maximum temperature yesterday: 75 °F (at 12:52 AM)
Minimum temperature yesterday: 54 °F (at 11:52 PM)
Average temperature yesterday: 66 °F

High & Low Weather Summary for the Past Weeks

High93 °F (Oct 17, 4:52 PM)100% (Oct 7, 5:52 AM)30.31 "Hg (Oct 7, 5:52 AM)
Low47 °F (Oct 21, 2:52 AM)31% (Oct 17, 4:52 PM)29.63 "Hg (Oct 17, 4:52 PM)
Average70 °F65%30.01 "Hg
* Reported Oct 6 2:52 AM — Oct 21 2:52 AM, Abilene, Weather by CustomWeather, © 2016

Note: Actual official high and low records may vary slightly from our data, if they occured in-between our weather recording intervals... More about our weather records


Abilene Weather History for the Previous 24 Hours

Scroll right to see more
Time TempWeatherWind HumidityBarometerVisibility
2:52 AM
Fri, Oct 21
47 °FClear.No wind83%30.31 "Hg3 mi
1:52 AM51 °FClear.No wind71%30.29 "Hg10 mi
12:52 AM55 °FClear.6 mph62%30.29 "Hg10 mi
11:52 PM
Thu, Oct 20
54 °FClear.3 mph64%30.31 "Hg10 mi
10:52 PM56 °FClear.6 mph58%30.31 "Hg10 mi
9:52 PM59 °FClear.8 mph51%30.30 "Hg10 mi
8:52 PM61 °FClear.6 mph52%30.29 "Hg10 mi
7:52 PM62 °FClear.7 mph50%30.26 "Hg10 mi
6:52 PM67 °FSunny.7 mph41%30.24 "Hg10 mi
5:52 PM70 °FSunny.12 mph38%30.23 "Hg10 mi
4:52 PM72 °FSunny.14 mph35%30.23 "Hg10 mi
3:52 PM73 °FSunny.15 mph36%30.23 "Hg10 mi
2:52 PM73 °FSunny.16 mph34%30.24 "Hg10 mi
1:52 PM73 °FSunny.23 mph34%30.25 "Hg10 mi
12:52 PM71 °FSunny.16 mph41%30.27 "Hg10 mi
11:52 AM69 °FSunny.18 mph47%30.27 "Hg10 mi
10:52 AM67 °FSunny.20 mph55%30.27 "Hg10 mi
9:52 AM65 °FPartly sunny.20 mph61%30.24 "Hg10 mi
8:52 AM62 °FOvercast.18 mph73%30.21 "Hg10 mi
7:52 AM63 °FOvercast.17 mph75%30.16 "Hg10 mi
6:52 AM64 °FOvercast.14 mph81%30.13 "Hg10 mi
6:03 AM64 °FPassing clouds.14 mph81%30.18 "Hg10 mi
5:52 AM64 °FPassing clouds.15 mph78%30.10 "Hg10 mi
4:52 AM64 °FPassing clouds.14 mph87%30.07 "Hg10 mi
Weather by CustomWeather, © 2016

See weather overviewHow to use our weather pages